Погода в Кондуках

Россия / Тульская область     53°50′48″N   38°21′15″E
темп.,
°C
ветер,
м/с
пор.,
м/с
влажн.,
%
обл.,
%
осадки,
мм/ч
давл.,
гПа
погр.,
м
17 мая, пн
пн1700:00+15всв348043 0.0 101342
03:00+13всв388415 0.1 1013140
06:00+15всв4119471 1.9 1013260
09:00+20в697830 1.9 1012417
12:00+24юв695862 0.0 1011846
15:00+26юв610585 0.0 10101463
18:00+22юв61365100 0.0 1010505
21:00+19вюв61677100 0.0 1010420
18 мая, вт
вт1800:00+18юв616720 0.0 1009401
03:00+16юв513775 0.0 1009268
06:00+15юв4117895 0.0 1009243
09:00+20юв6116299 0.0 1009437
12:00+23юв7105258 0.0 1009700
15:00+25вюв61153100 0.0 10081336
18:00+22юв71467100 0.0 1007809
21:00+18вюв41084100 0.0 1007192
19 мая, ср
ср1900:00+17вюв3490100 0.0 100781
03:00+16юв3688100 0.1 1008124
06:00+16юв4987100 0.0 1007221
09:00+19ююв5875100 0.0 1008628
12:00+22ю575995 0.0 10081403
15:00+20ююв5968100 1.0 10081029
18:00+19ююв497359 0.4 10071029
21:00+16ююв3686100 1.1 1008136
20 мая, чт
чт2000:00+14юв3693100 0.4 1007140
03:00+13ююв369487 0.4 1007125
06:00+13ю2696100 1.1 1007256
09:00+14ю3588100 2.4 1006406
12:00+17ю797231 1.4 10071213
15:00+17ююз8107580 2.1 10081173
18:00+16ююз610761 0.3 10091161
21:00+13зюз511864 0.3 1011555
21 мая, пт
пт2100:00+11юз6148649 0.0 1013530
03:00+10зюз4109188 0.0 1015257
06:00+11юз259318 0.0 1016152
09:00+14ююз4786100 0.0 1017491
12:00+14ююз468299 0.0 1019455
15:00+18ююз467074 0.1 1018984
18:00+18ююз367542 0.3 1017500
21:00+16ююв3584100 0.7 1017103